JAGSAT 1

Last updated on Sun Jan 22 2023 00:02:07 GMT+0000 (Coordinated Universal Time)

1 53771U 98067UJ 23021.18255652 .04584975 11861-4 20040-2 0 9996 2 53771 51.6196 319.4144 0007063 176.9180 183.1883 16.21690059 21450

Satellite not in orbit